This is the latest recevied weather packets stored in our database for station/object W0BJ. If no packets are shown the sender has not sent any weather packets the latest 10 day(s).
| Time | Temp. | Humidity | Pressure | Rain* | Wind** | Luminosity | Snow |
|---|---|---|---|---|---|---|---|
| 1777837999 | 24.44° C | 34% | 1013.7 hPa | 0 mm | - | - | - |
| 1777837945 | 24.44° C | 33% | 1013.7 hPa | 0 mm | - | - | - |
| 1777837345 | 25° C | 33% | 1013.9 hPa | 0 mm | - | - | - |
| 1777837098 | 25° C | 34% | 1014.2 hPa | 0 mm | - | - | - |
| 1777836744 | 24.44° C | 33% | 1014.4 hPa | 0 mm | - | - | - |
| 1777836197 | 24.44° C | 33% | 1014.4 hPa | 0 mm | - | - | - |
| 1777836143 | 24.44° C | 33% | 1014.6 hPa | 0 mm | - | - | - |
| 1777835545 | 23.89° C | 33% | 1014.7 hPa | 0 mm | - | - | - |
| 1777835298 | 23.89° C | 34% | 1014.9 hPa | 0 mm | - | - | - |
| 1777834943 | 23.89° C | 35% | 1014.9 hPa | 0 mm | - | - | - |
| 1777834399 | 23.89° C | 33% | 1015.2 hPa | 0 mm | - | - | - |
| 1777834345 | 23.89° C | 33% | 1015.3 hPa | 0 mm | - | - | - |
| 1777833744 | 23.89° C | 35% | 1015.4 hPa | 0 mm | - | - | - |
| 1777833498 | 23.33° C | 35% | 1015.4 hPa | 0 mm | - | - | - |
| 1777833144 | 23.33° C | 35% | 1015.7 hPa | 0 mm | - | - | - |
| 1777832597 | 22.78° C | 35% | 1015.8 hPa | 0 mm | - | - | - |
| 1777832543 | 22.78° C | 34% | 1015.8 hPa | 0 mm | - | - | - |
| 1777831945 | 22.78° C | 34% | 1016 hPa | 0 mm | - | - | - |
| 1777831698 | 22.78° C | 34% | 1016.1 hPa | 0 mm | - | - | - |
| 1777831344 | 22.78° C | 34% | 1016.3 hPa | 0 mm | - | - | - |
| 1777830798 | 22.22° C | 37% | 1016.8 hPa | 0 mm | - | - | - |
| 1777830744 | 22.22° C | 37% | 1016.8 hPa | 0 mm | - | - | - |
| 1777830143 | 22.22° C | 36% | 1017.2 hPa | 0 mm | - | - | - |
| 1777829899 | 22.22° C | 36% | 1017.3 hPa | 0 mm | - | - | - |
| 1777829545 | 21.67° C | 36% | 1017.5 hPa | 0 mm | - | - | - |
* Rain latest hour (hover to see other rain measurements)
** Current wind speed in m/s (hover to see current wind gust speed)